Tracking 23731 objects as of 27-Sep-2021
HD Live streaming from Space Station
objects crossing your sky now

CZ-3B DEB

Track CZ-3B DEB now!


NORAD ID: 40188
Int'l Code: 2011-077M
Perigee: 720.6 km
Apogee: 41,388.0 km
Inclination: 26.8 °
Period: 753.3 minutes
Semi major axis: 27425 km
RCS: Unknown
Launch date: December 19, 2011
Source: People's Republic of China (PRC)
Launch site: Xichang Space Center, China (XSC)

Note: This is SATELLITE DEBRIS
aabbcc
Your satellite tracking list
Your tracking list is empty




NASA's NSSDC Master Catalog

Two Line Element Set (TLE):
1 40188U 11077M   21270.48650373 -.00000598  00000-0 -20972-1 0  9990
2 40188  26.8171  81.5777 7414197 357.3911   0.1909  1.91150559 61838
Source of the keplerian elements: AFSPC